This is the latest recevied weather packets stored in our database for station/object N3LF. If no packets are shown the sender has not sent any weather packets the latest 10 day(s).
| Time | Temp. | Humidity | Pressure | Rain* | Wind** | Luminosity | Snow |
|---|---|---|---|---|---|---|---|
| 1788098774 | 27.22° C | 83% | 1022.5 hPa | 0 mm | - | 323 W/m² | - |
| 1788098458 | 27.22° C | 84% | 1022.6 hPa | 0 mm | - | 314 W/m² | - |
| 1788098154 | 26.11° C | 86% | 1022.5 hPa | 0 mm | - | 305 W/m² | - |
| 1788097854 | 26.11° C | 87% | 1022.5 hPa | 0 mm | - | 292 W/m² | - |
| 1788097550 | 25.56° C | 88% | 1022.3 hPa | 0 mm | - | 275 W/m² | - |
| 1788097250 | 25° C | 90% | 1022.7 hPa | 0 mm | - | 253 W/m² | - |
| 1788096945 | 25° C | 90% | 1022.5 hPa | 0 mm | - | 229 W/m² | - |
| 1788096640 | 23.89° C | 92% | 1022.7 hPa | 0 mm | - | 203 W/m² | - |
| 1788096336 | 23.33° C | 95% | 1022.6 hPa | 0 mm | - | 176 W/m² | - |
| 1788096031 | 22.78° C | 97% | 1022.6 hPa | 0 mm | - | 156 W/m² | - |
| 1788095730 | 22.22° C | 99% | 1022.5 hPa | 0 mm | - | 140 W/m² | - |
| 1788095425 | 22.22° C | 99% | 1022.7 hPa | 0 mm | - | 127 W/m² | - |
| 1788095120 | 21.67° C | 99% | 1022.6 hPa | 0 mm | - | 115 W/m² | - |
| 1788094816 | 21.11° C | 99% | 1022.6 hPa | 0 mm | - | 100 W/m² | - |
| 1788094510 | 21.11° C | 99% | 1022.6 hPa | 0 mm | - | 95 W/m² | - |
| 1788094208 | 21.11° C | 99% | 1022.6 hPa | 0 mm | - | 88 W/m² | - |
| 1788093903 | 20.56° C | 99% | 1022.5 hPa | 0 mm | - | 81 W/m² | - |
| 1788093599 | 20.56° C | 99% | 1022.4 hPa | 0 mm | - | 73 W/m² | - |
| 1788093297 | 20° C | 99% | 1022.5 hPa | 0 mm | - | 66 W/m² | - |
| 1788092994 | 20° C | 99% | 1022.4 hPa | 0 mm | - | 60 W/m² | - |
| 1788092692 | 20.56° C | 99% | 1022.4 hPa | 0 mm | - | 54 W/m² | - |
| 1788092388 | 20° C | 99% | 1022.5 hPa | 0 mm | - | 48 W/m² | - |
| 1788092084 | 20° C | 99% | 1022.2 hPa | 0 mm | - | 45 W/m² | - |
| 1788091783 | 19.44° C | 99% | 1022.3 hPa | 0 mm | - | 40 W/m² | - |
| 1788091479 | 19.44° C | 99% | 1022.1 hPa | 0 mm | - | 36 W/m² | - |
* Rain latest hour (hover to see other rain measurements)
** Current wind speed in m/s (hover to see current wind gust speed)